Simultaneous Nadir Overpasses (SNOs) Predictions

Prediction of SNOs between LANDSAT-8 and NOAA-19 Satellite Orbit:

Table of predicted SNOs for the next 14.0 days since TLE Epoch: 10/7/2023
Index Date (LANDSAT-8) Time (LANDSAT-8) Lat,Lon (LANDSAT-8) SZA (LANDSAT-8 ) Date (NOAA-19) Time (NOAA-19) Lat,Lon (NOAA-19) SZA (NOAA-19 ) Distance(km) Time Diff (sec)
1 10/08/2023 18:14:27 -80.91, 123.39 91.02 10/08/2023 18:14:26 -80.92, 123.48 91.00 1.86 1
2 10/11/2023 00:37:38 -80.93, 27.81 90.12 10/11/2023 00:37:45 -80.92, 27.84 90.11 0.80 7
3 10/13/2023 07:00:49 -80.93, -68.00 89.26 10/13/2023 07:01:04 -80.92, -67.90 89.24 1.77 15
4 10/15/2023 12:34:33 80.91, 28.32 91.55 10/15/2023 12:33:26 80.91, 28.28 91.52 0.71 67
5 10/15/2023 13:24:00 -80.91,-164.03 88.44 10/15/2023 13:24:24 -80.92,-164.10 88.43 1.54 24
6 10/17/2023 18:57:42 80.93, -67.26 92.42 10/17/2023 18:56:45 80.91, -67.44 92.37 3.33 57
7 10/17/2023 19:47:09 -80.93, 100.40 87.57 10/17/2023 19:47:42 -80.92, 100.35 87.56 1.22 33
8 10/20/2023 01:20:52 80.90,-163.42 93.19 10/20/2023 01:20:04 80.91,-163.25 93.20 3.37 48



Historial Predications of SNOs between LANDSAT-8 and NOAA-19
